User: anonymous   Login
Location: Unspecified
(0.0000°N, 0.0000°E)
Time: 08:49:49
(UTC+01:00)
Language:

Meteor PRIRODA - Orbit

View from above orbital plane
View from above orbital plane
View from above satellite
View from above satellite

Ground track
Ground track

The orbit data is extracted from the following two-line orbital elements,

1 12585U 81065A   18054.48616225  .00000551  00000-0  28147-4 0  9990
2 12585  97.4615  35.6961 0013176 238.5496 121.4452 15.20782684   462
Epoch (UTC): 23 February 2018 11:40:04
Eccentricity: 0.0013176
inclination: 97.4615°
perigee height: 494 km
apogee height: 512 km
right ascension of ascending node: 35.6961°
argument of perigee: 238.5496°
revolutions per day: 15.20782684
mean anomaly at epoch: 121.4452°
orbit number at epoch: 46

The dashed part of the orbit path shows where the satellite is in the earth's shadow,  

DLR